Powrót do katalogu

FREGAT DEB

AktywnyUNKNOWN
NORAD 46411·DEBRIS·🇷🇺 Russia

Wystrzelony Jul 18, 2011 z Baikonur Cosmodrome

Loading…

Następne Przeloty (najbliższe 24 godziny)

TLE

ŚwieżeSource: Space-Track

Epoka: Sep 14, 2026, 08:20 UTC

1 46411U 11037LS  26257.34723824  .00004584  00000-0  12927-2 0  9997
2 46411  51.4845  12.5855 1518474 337.7427  16.3719 11.96430652260275

Śledź FREGAT DEB w czasie rzeczywistym z AllMySat

Download on the App Store